GEFSMA_prec_meanprecacc_060.txt.gz
Total_Precipitation_Accumulation
0.19 0.23 0.21 0.24 0.21 0.32 0.46 0.50 0.45 0.57 0.69 0.63 0.53 0.49 0.51 0.50 0.43 0.49 0.50 0.41 0.33 0.39 0.57 0.60 0.53 0.48 0.47 0.40 0.36 0.39 0.43 0.42 0.42 0.37 0.29 0.27 0.33 0.39 0.37 0.31 0.28 0.25 0.25
0.35 0.41 0.41 0.44 0.40 0.48 0.61 0.67 0.66 0.93 0.88 0.83 0.70 0.62 0.58 0.58 0.54 0.49 0.46 0.45 0.39 0.33 0.38 0.49 0.55 0.52 0.49 0.44 0.38 0.35 0.35 0.36 0.33 0.25 0.20 0.20 0.27 0.35 0.34 0.31 0.26 0.21 0.17
0.57 0.64 0.69 0.68 0.76 0.79 0.88 0.90 0.99 1.10 0.90 0.84 0.70 0.64 0.57 0.52 0.46 0.44 0.46 0.50 0.47 0.38 0.28 0.32 0.42 0.45 0.49 0.51 0.48 0.44 0.36 0.31 0.30 0.22 0.16 0.15 0.22 0.31 0.31 0.29 0.24 0.18 0.12
0.77 0.90 0.88 0.86 1.12 1.21 1.25 1.31 1.36 1.33 1.21 1.09 0.87 0.66 0.55 0.53 0.39 0.32 0.31 0.33 0.36 0.29 0.26 0.33 0.38 0.40 0.46 0.52 0.58 0.56 0.50 0.44 0.38 0.30 0.21 0.16 0.22 0.29 0.27 0.25 0.22 0.15 0.10
0.94 1.08 0.98 1.07 1.30 1.40 1.46 1.38 1.55 1.48 1.42 1.33 1.07 0.80 0.58 0.44 0.33 0.26 0.20 0.18 0.22 0.22 0.19 0.23 0.27 0.30 0.44 0.59 0.64 0.64 0.62 0.60 0.52 0.42 0.36 0.30 0.28 0.27 0.27 0.26 0.23 0.18 0.13
1.08 1.25 1.14 1.22 1.42 1.53 1.50 1.54 1.58 1.58 1.47 1.42 1.10 0.79 0.59 0.40 0.28 0.21 0.17 0.15 0.13 0.13 0.14 0.18 0.28 0.27 0.38 0.52 0.56 0.62 0.67 0.67 0.61 0.54 0.52 0.49 0.47 0.43 0.36 0.33 0.32 0.29 0.22
1.07 1.28 1.22 1.34 1.39 1.36 1.40 1.56 1.67 1.49 1.33 1.49 1.25 0.74 0.45 0.33 0.27 0.24 0.24 0.24 0.18 0.15 0.15 0.18 0.23 0.31 0.37 0.41 0.45 0.52 0.67 0.74 0.70 0.64 0.60 0.61 0.69 0.75 0.57 0.52 0.53 0.48 0.39
1.18 1.19 1.20 1.20 1.22 1.31 1.37 1.45 1.64 1.45 1.15 1.33 1.30 1.03 0.57 0.41 0.36 0.27 0.29 0.30 0.25 0.22 0.21 0.23 0.28 0.40 0.42 0.50 0.54 0.43 0.58 0.80 0.82 0.82 0.75 0.74 0.84 0.94 0.80 0.79 0.74 0.63 0.54
1.09 1.10 1.10 1.20 1.36 1.43 1.34 1.35 1.43 1.37 1.11 1.12 1.25 1.29 0.89 0.61 0.44 0.23 0.24 0.28 0.35 0.40 0.35 0.36 0.37 0.44 0.49 0.57 0.73 0.70 0.51 0.58 0.69 0.86 0.95 0.92 0.89 0.90 1.00 1.09 0.99 0.80 0.61
1.04 1.03 1.06 1.09 1.11 1.12 1.10 1.04 1.14 1.25 1.21 1.06 1.16 1.22 1.16 1.02 0.82 0.45 0.32 0.34 0.45 0.49 0.49 0.44 0.38 0.39 0.52 0.72 0.89 0.94 0.82 0.68 0.60 0.76 0.96 1.03 0.95 0.89 1.04 1.21 1.30 1.09 0.75
0.95 0.94 0.90 0.88 0.83 0.83 0.90 0.93 0.99 1.05 1.09 1.05 1.07 1.14 1.16 1.16 1.17 0.98 0.62 0.59 0.59 0.50 0.53 0.50 0.46 0.46 0.56 0.71 0.82 0.87 0.96 0.83 0.77 0.71 0.68 0.78 0.86 0.87 0.93 1.14 1.44 1.46 1.16
0.80 0.79 0.80 0.81 0.77 0.78 0.84 0.88 0.90 0.87 0.92 0.97 1.03 1.09 1.12 1.12 1.20 1.27 1.00 0.85 0.73 0.60 0.62 0.56 0.52 0.53 0.60 0.67 0.64 0.76 0.75 0.70 0.68 0.69 0.64 0.69 0.68 0.71 0.80 1.01 1.30 1.53 1.54
0.61 0.62 0.62 0.69 0.72 0.79 0.79 0.76 0.81 0.85 0.92 0.95 0.98 1.04 1.08 1.04 1.06 1.13 1.12 0.95 0.84 0.73 0.72 0.69 0.59 0.58 0.56 0.65 0.61 0.52 0.41 0.36 0.36 0.39 0.39 0.45 0.50 0.56 0.66 0.78 0.96 1.16 1.36
0.51 0.54 0.62 0.72 0.78 0.81 0.79 0.79 0.76 0.79 0.88 0.93 0.97 1.07 0.99 0.91 0.95 1.02 1.09 1.07 0.91 0.83 0.87 0.75 0.64 0.57 0.56 0.57 0.50 0.37 0.29 0.23 0.21 0.20 0.18 0.20 0.25 0.31 0.42 0.56 0.70 0.81 0.92
0.52 0.55 0.62 0.71 0.83 0.92 0.93 0.89 0.86 0.89 1.01 1.07 1.14 1.14 1.02 0.93 0.94 0.99 1.11 1.17 1.07 0.88 0.81 0.81 0.69 0.56 0.52 0.46 0.37 0.35 0.36 0.27 0.19 0.14 0.11 0.11 0.14 0.17 0.24 0.34 0.46 0.58 0.66
0.48 0.53 0.60 0.66 0.68 0.73 0.76 0.75 0.83 0.92 1.01 1.04 1.02 1.03 1.02 0.99 1.02 0.99 1.07 1.15 1.16 1.04 0.79 0.82 0.77 0.57 0.58 0.39 0.34 0.33 0.31 0.25 0.17 0.13 0.09 0.09 0.10 0.13 0.17 0.21 0.29 0.38 0.49
0.42 0.46 0.51 0.51 0.51 0.52 0.54 0.57 0.67 0.79 0.85 0.82 0.75 0.76 0.75 0.77 0.80 0.80 0.84 0.91 1.00 1.02 0.78 0.79 0.95 0.80 0.72 0.56 0.44 0.40 0.28 0.22 0.22 0.16 0.11 0.08 0.09 0.11 0.16 0.17 0.20 0.25 0.30
0.36 0.39 0.40 0.41 0.39 0.42 0.48 0.54 0.62 0.68 0.73 0.70 0.66 0.62 0.56 0.59 0.65 0.64 0.66 0.72 0.83 0.97 0.88 0.76 0.85 0.91 0.83 0.67 0.58 0.52 0.38 0.27 0.27 0.23 0.15 0.11 0.10 0.11 0.16 0.19 0.19 0.20 0.23
0.28 0.31 0.35 0.38 0.41 0.48 0.56 0.67 0.73 0.72 0.63 0.55 0.48 0.43 0.39 0.41 0.48 0.51 0.56 0.61 0.66 0.88 0.90 0.81 0.79 0.93 0.91 0.76 0.75 0.63 0.56 0.55 0.39 0.32 0.21 0.15 0.15 0.16 0.17 0.22 0.22 0.23 0.23
0.30 0.35 0.40 0.47 0.54 0.58 0.61 0.63 0.64 0.65 0.60 0.50 0.40 0.31 0.27 0.30 0.37 0.43 0.48 0.52 0.55 0.63 0.72 0.76 0.77 0.86 0.87 0.75 0.83 0.80 0.72 0.68 0.59 0.46 0.38 0.24 0.19 0.21 0.23 0.23 0.25 0.29 0.31
0.25 0.37 0.44 0.49 0.57 0.55 0.53 0.52 0.48 0.43 0.40 0.38 0.33 0.26 0.24 0.24 0.26 0.30 0.34 0.41 0.45 0.49 0.53 0.60 0.67 0.75 0.86 0.77 0.70 0.75 0.76 0.74 0.74 0.75 0.77 0.53 0.31 0.26 0.27 0.28 0.29 0.36 0.44
0.20 0.27 0.30 0.34 0.40 0.38 0.33 0.31 0.31 0.30 0.28 0.27 0.26 0.21 0.19 0.19 0.20 0.22 0.24 0.25 0.27 0.29 0.35 0.44 0.51 0.59 0.70 0.75 0.69 0.71 0.75 0.74 0.79 0.83 0.94 1.01 0.77 0.57 0.46 0.31 0.27 0.34 0.46
0.21 0.24 0.23 0.22 0.25 0.28 0.25 0.21 0.21 0.22 0.24 0.24 0.22 0.17 0.12 0.12 0.13 0.11 0.12 0.14 0.17 0.16 0.18 0.28 0.30 0.30 0.37 0.43 0.50 0.65 0.79 0.82 0.90 1.02 1.04 1.19 1.32 1.14 0.77 0.50 0.38 0.31 0.37
0.29 0.30 0.24 0.22 0.21 0.21 0.19 0.18 0.17 0.18 0.22 0.24 0.24 0.17 0.12 0.09 0.09 0.09 0.10 0.12 0.10 0.07 0.07 0.10 0.11 0.13 0.17 0.21 0.25 0.31 0.51 0.78 0.91 1.05 1.14 1.32 1.50 1.76 1.40 0.91 0.67 0.49 0.45
0.31 0.32 0.27 0.24 0.24 0.22 0.18 0.16 0.19 0.24 0.27 0.28 0.28 0.23 0.16 0.11 0.08 0.07 0.09 0.09 0.07 0.05 0.05 0.06 0.09 0.10 0.11 0.12 0.13 0.17 0.23 0.34 0.59 0.95 1.17 1.38 1.53 1.71 2.06 1.70 1.06 0.66 0.48
0.31 0.29 0.28 0.32 0.32 0.29 0.23 0.19 0.19 0.22 0.27 0.30 0.34 0.30 0.22 0.15 0.10 0.08 0.08 0.07 0.05 0.03 0.03 0.04 0.07 0.08 0.08 0.08 0.08 0.10 0.10 0.15 0.26 0.49 0.73 0.87 1.03 1.24 1.75 2.11 1.81 1.22 0.80

GEFSMA_prec_meanprecacc_066.txt.gz
Total_Precipitation_Accumulation
0.30 0.38 0.35 0.37 0.34 0.44 0.60 0.63 0.58 0.71 0.82 0.76 0.65 0.61 0.62 0.60 0.52 0.56 0.55 0.45 0.43 0.53 0.74 0.79 0.70 0.66 0.65 0.54 0.50 0.52 0.55 0.52 0.51 0.44 0.34 0.32 0.38 0.44 0.40 0.33 0.29 0.26 0.26
0.55 0.62 0.60 0.60 0.54 0.60 0.71 0.76 0.76 1.04 1.00 0.95 0.79 0.72 0.69 0.65 0.60 0.54 0.49 0.47 0.43 0.41 0.49 0.64 0.73 0.70 0.69 0.63 0.57 0.54 0.51 0.49 0.44 0.33 0.27 0.25 0.32 0.41 0.41 0.37 0.30 0.24 0.18
0.84 0.91 0.93 0.86 0.88 0.89 0.98 0.99 1.08 1.19 0.97 0.92 0.78 0.73 0.65 0.59 0.51 0.48 0.49 0.52 0.50 0.42 0.34 0.40 0.54 0.62 0.68 0.74 0.73 0.66 0.53 0.45 0.43 0.33 0.25 0.23 0.29 0.37 0.37 0.37 0.32 0.24 0.17
1.12 1.18 1.06 1.00 1.22 1.29 1.32 1.37 1.41 1.37 1.25 1.13 0.92 0.72 0.59 0.58 0.42 0.34 0.33 0.35 0.39 0.31 0.30 0.39 0.48 0.54 0.65 0.75 0.84 0.82 0.73 0.60 0.52 0.43 0.32 0.26 0.30 0.35 0.33 0.32 0.30 0.24 0.17
1.19 1.29 1.14 1.18 1.38 1.46 1.50 1.41 1.58 1.51 1.44 1.35 1.08 0.82 0.60 0.48 0.36 0.27 0.21 0.19 0.23 0.24 0.22 0.27 0.33 0.38 0.57 0.78 0.85 0.86 0.86 0.82 0.72 0.61 0.53 0.44 0.40 0.37 0.34 0.34 0.31 0.27 0.21
1.27 1.42 1.29 1.33 1.49 1.57 1.53 1.56 1.59 1.59 1.48 1.42 1.11 0.80 0.60 0.42 0.30 0.22 0.18 0.15 0.14 0.14 0.16 0.21 0.31 0.31 0.45 0.62 0.69 0.79 0.87 0.88 0.82 0.74 0.71 0.66 0.62 0.54 0.45 0.40 0.39 0.36 0.30
1.28 1.44 1.34 1.42 1.44 1.40 1.43 1.58 1.68 1.50 1.34 1.50 1.25 0.74 0.46 0.33 0.27 0.24 0.24 0.24 0.19 0.16 0.17 0.21 0.25 0.32 0.39 0.45 0.50 0.60 0.81 0.93 0.88 0.79 0.75 0.76 0.83 0.86 0.66 0.60 0.60 0.54 0.46
1.34 1.31 1.29 1.25 1.25 1.34 1.40 1.47 1.66 1.47 1.16 1.34 1.30 1.04 0.57 0.41 0.36 0.27 0.29 0.30 0.25 0.22 0.22 0.24 0.29 0.41 0.43 0.51 0.56 0.46 0.67 0.93 0.97 0.98 0.90 0.86 0.95 1.03 0.88 0.87 0.81 0.69 0.59
1.21 1.18 1.16 1.25 1.40 1.46 1.35 1.37 1.45 1.38 1.12 1.12 1.25 1.30 0.89 0.61 0.44 0.23 0.24 0.28 0.35 0.41 0.36 0.37 0.38 0.44 0.49 0.58 0.74 0.71 0.54 0.65 0.79 0.99 1.07 1.01 0.98 0.97 1.07 1.15 1.06 0.85 0.67
1.16 1.12 1.12 1.13 1.14 1.15 1.13 1.06 1.15 1.26 1.22 1.06 1.16 1.22 1.16 1.02 0.82 0.45 0.32 0.34 0.45 0.49 0.49 0.45 0.39 0.39 0.52 0.72 0.90 0.95 0.84 0.71 0.65 0.83 1.04 1.12 1.04 0.96 1.10 1.28 1.39 1.17 0.79
1.09 1.06 0.99 0.96 0.89 0.89 0.95 0.97 1.01 1.07 1.09 1.06 1.07 1.14 1.16 1.17 1.17 0.98 0.62 0.59 0.59 0.50 0.53 0.51 0.46 0.47 0.56 0.71 0.83 0.89 0.97 0.86 0.80 0.75 0.74 0.86 0.93 0.94 1.00 1.22 1.54 1.57 1.26
0.93 0.90 0.91 0.90 0.87 0.88 0.92 0.94 0.94 0.89 0.93 0.98 1.03 1.09 1.12 1.12 1.20 1.27 1.00 0.85 0.73 0.60 0.62 0.56 0.52 0.53 0.60 0.67 0.65 0.78 0.76 0.71 0.71 0.73 0.70 0.76 0.76 0.79 0.88 1.09 1.39 1.64 1.66
0.68 0.70 0.69 0.77 0.80 0.87 0.87 0.83 0.85 0.87 0.94 0.97 0.99 1.05 1.08 1.04 1.06 1.13 1.12 0.95 0.84 0.73 0.72 0.69 0.59 0.58 0.56 0.65 0.62 0.54 0.43 0.38 0.39 0.42 0.43 0.48 0.54 0.61 0.73 0.86 1.04 1.26 1.48
0.54 0.58 0.67 0.78 0.84 0.88 0.87 0.86 0.82 0.83 0.90 0.95 0.99 1.08 1.00 0.91 0.95 1.03 1.10 1.08 0.92 0.83 0.87 0.75 0.64 0.57 0.56 0.57 0.51 0.39 0.31 0.24 0.23 0.22 0.20 0.22 0.27 0.34 0.47 0.62 0.77 0.88 0.99
0.53 0.57 0.64 0.74 0.87 0.96 0.98 0.94 0.91 0.95 1.06 1.10 1.17 1.16 1.04 0.94 0.95 0.99 1.11 1.17 1.07 0.89 0.81 0.82 0.69 0.56 0.53 0.47 0.39 0.36 0.37 0.29 0.20 0.15 0.12 0.12 0.16 0.19 0.26 0.38 0.53 0.64 0.72
0.49 0.54 0.61 0.68 0.70 0.75 0.80 0.79 0.87 0.96 1.05 1.08 1.06 1.06 1.04 1.01 1.04 1.00 1.08 1.16 1.17 1.05 0.79 0.82 0.77 0.57 0.59 0.40 0.36 0.34 0.31 0.26 0.18 0.14 0.10 0.10 0.12 0.16 0.19 0.25 0.34 0.46 0.57
0.42 0.46 0.52 0.52 0.52 0.53 0.55 0.59 0.70 0.83 0.88 0.85 0.79 0.79 0.77 0.79 0.83 0.82 0.86 0.91 1.01 1.03 0.79 0.79 0.95 0.80 0.73 0.58 0.46 0.42 0.29 0.22 0.22 0.17 0.13 0.10 0.10 0.13 0.18 0.20 0.23 0.29 0.37
0.36 0.39 0.40 0.41 0.40 0.43 0.49 0.55 0.63 0.70 0.76 0.74 0.69 0.65 0.59 0.62 0.67 0.66 0.68 0.73 0.84 0.98 0.89 0.77 0.86 0.91 0.85 0.69 0.60 0.53 0.39 0.27 0.28 0.25 0.16 0.13 0.12 0.13 0.18 0.21 0.21 0.22 0.26
0.28 0.31 0.35 0.38 0.42 0.49 0.58 0.69 0.75 0.73 0.64 0.57 0.52 0.46 0.42 0.44 0.50 0.53 0.57 0.61 0.67 0.89 0.91 0.82 0.80 0.94 0.93 0.79 0.77 0.64 0.58 0.56 0.40 0.33 0.22 0.16 0.16 0.17 0.19 0.24 0.24 0.24 0.24
0.30 0.35 0.40 0.47 0.54 0.58 0.61 0.65 0.66 0.68 0.63 0.52 0.41 0.33 0.29 0.33 0.39 0.44 0.49 0.53 0.56 0.64 0.73 0.77 0.79 0.88 0.90 0.78 0.86 0.82 0.74 0.70 0.61 0.47 0.39 0.25 0.20 0.22 0.24 0.25 0.27 0.30 0.32
0.25 0.37 0.44 0.49 0.57 0.55 0.53 0.52 0.49 0.44 0.44 0.43 0.37 0.28 0.25 0.26 0.28 0.32 0.34 0.41 0.46 0.50 0.54 0.62 0.69 0.77 0.89 0.81 0.74 0.78 0.78 0.76 0.76 0.76 0.78 0.54 0.31 0.26 0.27 0.28 0.31 0.37 0.45
0.20 0.27 0.30 0.34 0.40 0.38 0.33 0.31 0.31 0.31 0.30 0.31 0.31 0.26 0.22 0.21 0.22 0.24 0.25 0.26 0.27 0.30 0.36 0.46 0.53 0.61 0.72 0.78 0.71 0.73 0.77 0.77 0.81 0.85 0.95 1.02 0.77 0.58 0.47 0.31 0.28 0.35 0.47
0.21 0.24 0.23 0.22 0.25 0.28 0.25 0.21 0.21 0.22 0.25 0.25 0.24 0.21 0.17 0.15 0.15 0.13 0.13 0.15 0.18 0.17 0.19 0.29 0.32 0.32 0.38 0.44 0.53 0.68 0.82 0.85 0.92 1.03 1.05 1.20 1.33 1.15 0.77 0.51 0.39 0.32 0.39
0.29 0.30 0.24 0.22 0.21 0.21 0.19 0.18 0.17 0.18 0.22 0.24 0.24 0.20 0.16 0.13 0.13 0.11 0.11 0.14 0.12 0.08 0.08 0.11 0.13 0.15 0.20 0.24 0.28 0.36 0.56 0.82 0.94 1.07 1.14 1.33 1.52 1.77 1.41 0.92 0.68 0.50 0.47
0.32 0.32 0.27 0.24 0.24 0.22 0.18 0.16 0.19 0.24 0.27 0.28 0.29 0.24 0.20 0.15 0.14 0.12 0.12 0.11 0.09 0.07 0.06 0.09 0.12 0.14 0.17 0.18 0.19 0.23 0.27 0.38 0.64 0.99 1.19 1.39 1.54 1.72 2.07 1.71 1.07 0.67 0.49
0.33 0.30 0.29 0.32 0.32 0.29 0.23 0.19 0.19 0.22 0.27 0.30 0.35 0.32 0.26 0.19 0.18 0.15 0.13 0.10 0.08 0.05 0.04 0.06 0.11 0.14 0.14 0.16 0.16 0.16 0.15 0.18 0.29 0.53 0.75 0.88 1.05 1.25 1.76 2.12 1.82 1.22 0.80

GEFSMA_prec_meanprecacc_072.txt.gz
Total_Precipitation_Accumulation
0.38 0.46 0.44 0.48 0.45 0.56 0.73 0.78 0.74 0.88 0.99 0.93 0.81 0.73 0.71 0.67 0.58 0.63 0.62 0.51 0.48 0.57 0.78 0.84 0.76 0.72 0.73 0.63 0.59 0.62 0.65 0.63 0.60 0.50 0.39 0.36 0.43 0.49 0.45 0.37 0.32 0.28 0.28
0.68 0.77 0.75 0.75 0.69 0.75 0.86 0.92 0.93 1.24 1.18 1.14 0.94 0.85 0.81 0.76 0.68 0.61 0.56 0.56 0.49 0.45 0.54 0.70 0.80 0.78 0.77 0.73 0.66 0.63 0.62 0.59 0.52 0.40 0.32 0.30 0.38 0.48 0.48 0.43 0.35 0.28 0.21
1.01 1.08 1.08 1.01 1.04 1.03 1.13 1.14 1.26 1.40 1.14 1.08 0.94 0.91 0.81 0.72 0.60 0.56 0.58 0.60 0.55 0.47 0.38 0.45 0.61 0.70 0.78 0.85 0.85 0.77 0.63 0.55 0.51 0.39 0.29 0.27 0.33 0.42 0.43 0.44 0.40 0.31 0.21
1.34 1.40 1.25 1.18 1.40 1.46 1.46 1.52 1.57 1.54 1.41 1.30 1.10 0.88 0.74 0.70 0.49 0.40 0.39 0.40 0.43 0.36 0.34 0.43 0.53 0.59 0.73 0.85 0.95 0.94 0.84 0.68 0.59 0.50 0.38 0.32 0.36 0.41 0.38 0.38 0.38 0.30 0.22
1.39 1.51 1.35 1.39 1.57 1.63 1.64 1.52 1.70 1.63 1.57 1.48 1.20 0.94 0.70 0.55 0.42 0.31 0.24 0.21 0.26 0.27 0.25 0.30 0.35 0.41 0.62 0.84 0.93 0.98 0.98 0.91 0.78 0.67 0.59 0.51 0.46 0.42 0.39 0.38 0.36 0.32 0.25
1.50 1.63 1.49 1.54 1.69 1.74 1.66 1.66 1.69 1.68 1.57 1.51 1.17 0.85 0.66 0.46 0.33 0.25 0.19 0.16 0.15 0.16 0.18 0.22 0.33 0.33 0.47 0.65 0.73 0.86 0.98 0.98 0.89 0.82 0.78 0.74 0.69 0.60 0.49 0.45 0.45 0.41 0.33
1.58 1.68 1.53 1.61 1.65 1.58 1.59 1.72 1.78 1.58 1.40 1.56 1.31 0.79 0.49 0.35 0.29 0.26 0.26 0.25 0.19 0.17 0.18 0.22 0.28 0.35 0.42 0.46 0.52 0.62 0.87 1.02 0.98 0.88 0.82 0.82 0.90 0.93 0.71 0.65 0.65 0.58 0.49
1.56 1.51 1.46 1.41 1.41 1.48 1.51 1.57 1.74 1.52 1.20 1.38 1.34 1.07 0.59 0.43 0.37 0.28 0.30 0.30 0.25 0.23 0.23 0.25 0.31 0.43 0.45 0.53 0.57 0.47 0.69 0.99 1.06 1.06 0.97 0.92 1.01 1.08 0.92 0.92 0.85 0.72 0.62
1.38 1.34 1.31 1.38 1.52 1.56 1.44 1.44 1.51 1.44 1.17 1.16 1.29 1.32 0.90 0.62 0.45 0.23 0.24 0.28 0.36 0.41 0.37 0.38 0.39 0.46 0.51 0.60 0.76 0.72 0.55 0.66 0.82 1.06 1.13 1.07 1.02 1.01 1.11 1.19 1.10 0.89 0.70
1.30 1.26 1.26 1.26 1.26 1.25 1.21 1.13 1.22 1.32 1.27 1.10 1.20 1.25 1.17 1.03 0.82 0.45 0.32 0.34 0.45 0.50 0.50 0.46 0.40 0.41 0.53 0.73 0.91 0.96 0.84 0.71 0.66 0.87 1.11 1.20 1.09 1.00 1.14 1.33 1.44 1.22 0.83
1.21 1.20 1.13 1.09 1.02 1.01 1.05 1.05 1.09 1.13 1.15 1.11 1.11 1.17 1.18 1.18 1.18 0.98 0.63 0.59 0.59 0.51 0.54 0.51 0.47 0.47 0.57 0.72 0.84 0.89 0.98 0.86 0.81 0.76 0.78 0.91 0.99 0.98 1.03 1.25 1.60 1.64 1.33
0.99 0.98 0.99 0.99 0.95 0.97 1.01 1.02 1.01 0.95 0.99 1.03 1.08 1.14 1.15 1.14 1.21 1.27 1.00 0.85 0.73 0.60 0.62 0.56 0.52 0.54 0.61 0.69 0.66 0.78 0.76 0.72 0.71 0.74 0.71 0.78 0.79 0.83 0.92 1.13 1.45 1.72 1.75
0.71 0.74 0.74 0.83 0.86 0.94 0.94 0.90 0.92 0.94 1.01 1.03 1.05 1.10 1.13 1.08 1.09 1.15 1.13 0.95 0.84 0.73 0.72 0.69 0.59 0.58 0.56 0.66 0.63 0.54 0.43 0.38 0.39 0.42 0.43 0.50 0.57 0.64 0.76 0.89 1.09 1.33 1.57
0.55 0.59 0.68 0.80 0.88 0.92 0.93 0.93 0.90 0.92 0.99 1.04 1.07 1.15 1.06 0.96 0.99 1.06 1.12 1.09 0.93 0.83 0.87 0.75 0.65 0.58 0.57 0.59 0.52 0.39 0.32 0.24 0.24 0.23 0.20 0.23 0.29 0.37 0.50 0.65 0.81 0.92 1.05
0.53 0.57 0.65 0.75 0.88 0.99 1.01 0.98 0.97 1.03 1.15 1.19 1.26 1.24 1.11 1.01 1.01 1.05 1.16 1.21 1.10 0.90 0.82 0.82 0.70 0.57 0.54 0.48 0.39 0.38 0.38 0.29 0.20 0.16 0.12 0.13 0.17 0.21 0.29 0.41 0.55 0.68 0.76
0.49 0.54 0.61 0.68 0.71 0.76 0.81 0.81 0.90 1.00 1.12 1.16 1.14 1.14 1.12 1.09 1.12 1.08 1.15 1.22 1.22 1.09 0.82 0.83 0.79 0.59 0.60 0.41 0.36 0.35 0.32 0.26 0.19 0.14 0.11 0.12 0.14 0.18 0.21 0.27 0.37 0.48 0.59
0.42 0.47 0.52 0.52 0.53 0.53 0.56 0.61 0.72 0.85 0.92 0.91 0.86 0.87 0.87 0.89 0.92 0.92 0.96 1.00 1.08 1.09 0.84 0.82 0.98 0.84 0.75 0.59 0.47 0.43 0.29 0.23 0.23 0.18 0.13 0.11 0.11 0.15 0.20 0.23 0.26 0.32 0.41
0.36 0.39 0.41 0.42 0.41 0.43 0.50 0.56 0.64 0.72 0.78 0.77 0.75 0.73 0.69 0.72 0.78 0.76 0.80 0.87 0.96 1.08 0.97 0.83 0.91 0.95 0.89 0.72 0.62 0.54 0.40 0.28 0.29 0.26 0.17 0.13 0.12 0.13 0.19 0.23 0.23 0.25 0.29
0.29 0.31 0.35 0.39 0.42 0.49 0.59 0.69 0.76 0.74 0.66 0.60 0.55 0.51 0.50 0.54 0.61 0.64 0.69 0.73 0.79 1.01 1.03 0.91 0.87 1.01 0.99 0.82 0.80 0.66 0.59 0.57 0.41 0.34 0.22 0.16 0.17 0.17 0.20 0.25 0.26 0.26 0.26
0.30 0.36 0.41 0.47 0.54 0.58 0.61 0.65 0.67 0.69 0.64 0.54 0.43 0.36 0.34 0.41 0.51 0.56 0.60 0.63 0.65 0.73 0.84 0.88 0.88 0.96 0.97 0.82 0.89 0.84 0.76 0.71 0.62 0.48 0.39 0.25 0.20 0.23 0.25 0.26 0.28 0.31 0.33
0.26 0.38 0.45 0.50 0.58 0.56 0.53 0.53 0.50 0.45 0.45 0.45 0.39 0.30 0.28 0.31 0.36 0.43 0.47 0.52 0.55 0.58 0.63 0.71 0.79 0.87 0.97 0.86 0.77 0.81 0.79 0.78 0.77 0.77 0.79 0.54 0.32 0.27 0.28 0.30 0.33 0.39 0.46
0.22 0.29 0.32 0.37 0.42 0.39 0.34 0.31 0.32 0.32 0.31 0.32 0.33 0.29 0.25 0.24 0.26 0.30 0.34 0.37 0.38 0.39 0.45 0.54 0.61 0.69 0.80 0.83 0.75 0.77 0.79 0.78 0.83 0.86 0.96 1.03 0.78 0.58 0.48 0.33 0.30 0.37 0.49
0.25 0.28 0.27 0.26 0.28 0.31 0.26 0.22 0.21 0.23 0.27 0.27 0.27 0.24 0.19 0.18 0.18 0.17 0.19 0.22 0.27 0.26 0.27 0.38 0.40 0.39 0.47 0.51 0.58 0.73 0.85 0.87 0.94 1.04 1.06 1.21 1.34 1.15 0.78 0.52 0.40 0.33 0.41
0.35 0.36 0.30 0.27 0.26 0.25 0.21 0.18 0.18 0.19 0.24 0.27 0.27 0.22 0.18 0.15 0.15 0.15 0.17 0.19 0.18 0.16 0.14 0.16 0.19 0.23 0.30 0.35 0.37 0.42 0.61 0.86 0.97 1.08 1.15 1.34 1.53 1.78 1.41 0.93 0.69 0.51 0.48
0.39 0.39 0.33 0.30 0.29 0.26 0.21 0.17 0.20 0.25 0.30 0.31 0.31 0.26 0.21 0.17 0.16 0.14 0.16 0.17 0.15 0.14 0.13 0.14 0.17 0.20 0.24 0.28 0.30 0.32 0.34 0.43 0.67 1.02 1.20 1.40 1.55 1.73 2.08 1.72 1.08 0.69 0.51
0.41 0.37 0.35 0.38 0.38 0.35 0.27 0.21 0.20 0.25 0.31 0.33 0.39 0.35 0.27 0.21 0.19 0.17 0.16 0.15 0.14 0.12 0.11 0.12 0.16 0.18 0.18 0.21 0.23 0.23 0.22 0.24 0.32 0.56 0.77 0.89 1.06 1.25 1.76 2.13 1.83 1.23 0.81

GEFSMA_prec_meanprecacc_078.txt.gz
Total_Precipitation_Accumulation
0.52 0.59 0.57 0.60 0.57 0.70 0.89 0.96 0.94 1.11 1.20 1.12 0.96 0.86 0.81 0.74 0.63 0.69 0.78 0.68 0.56 0.62 0.80 0.85 0.78 0.75 0.75 0.67 0.64 0.67 0.70 0.68 0.65 0.53 0.41 0.38 0.44 0.49 0.45 0.38 0.33 0.29 0.29
0.89 0.99 0.95 0.93 0.84 0.89 1.02 1.12 1.12 1.49 1.42 1.37 1.09 0.98 0.92 0.86 0.78 0.69 0.70 0.80 0.64 0.51 0.57 0.72 0.82 0.82 0.81 0.77 0.71 0.68 0.66 0.65 0.58 0.43 0.35 0.32 0.39 0.48 0.48 0.43 0.36 0.29 0.22
1.22 1.31 1.32 1.23 1.24 1.22 1.33 1.33 1.45 1.64 1.38 1.32 1.16 1.12 1.03 0.90 0.77 0.74 0.70 0.78 0.73 0.57 0.42 0.47 0.64 0.74 0.83 0.90 0.91 0.82 0.67 0.59 0.54 0.42 0.33 0.30 0.36 0.43 0.44 0.46 0.42 0.32 0.22
1.55 1.64 1.51 1.42 1.66 1.70 1.68 1.73 1.77 1.76 1.63 1.53 1.32 1.07 0.97 0.93 0.67 0.60 0.53 0.53 0.59 0.50 0.45 0.50 0.57 0.63 0.77 0.90 1.01 1.00 0.87 0.71 0.61 0.52 0.41 0.34 0.39 0.44 0.40 0.39 0.39 0.32 0.24
1.62 1.75 1.59 1.64 1.84 1.87 1.86 1.72 1.95 1.89 1.83 1.72 1.39 1.10 0.85 0.69 0.58 0.46 0.39 0.32 0.36 0.38 0.38 0.41 0.41 0.45 0.65 0.89 0.98 1.04 1.03 0.95 0.81 0.69 0.62 0.53 0.49 0.44 0.42 0.41 0.38 0.33 0.26
1.74 1.86 1.73 1.79 1.93 1.97 1.90 1.91 1.97 1.98 1.85 1.75 1.33 1.00 0.81 0.57 0.47 0.41 0.32 0.30 0.26 0.23 0.24 0.32 0.43 0.37 0.49 0.68 0.77 0.92 1.04 1.02 0.93 0.86 0.82 0.78 0.73 0.63 0.51 0.47 0.47 0.43 0.35
1.84 1.99 1.86 1.95 1.95 1.81 1.80 1.96 2.05 1.85 1.64 1.76 1.49 0.94 0.61 0.44 0.39 0.34 0.33 0.34 0.28 0.23 0.21 0.30 0.38 0.43 0.46 0.48 0.53 0.65 0.92 1.08 1.03 0.93 0.87 0.87 0.96 0.97 0.73 0.67 0.67 0.61 0.52
1.77 1.79 1.79 1.75 1.75 1.75 1.74 1.78 1.95 1.75 1.42 1.59 1.51 1.22 0.72 0.53 0.45 0.33 0.34 0.33 0.28 0.27 0.28 0.32 0.41 0.53 0.51 0.60 0.60 0.49 0.73 1.04 1.11 1.11 1.02 0.97 1.06 1.13 0.95 0.95 0.87 0.74 0.64
1.50 1.51 1.52 1.64 1.83 1.87 1.73 1.69 1.72 1.64 1.36 1.35 1.45 1.46 1.00 0.70 0.53 0.28 0.28 0.31 0.39 0.45 0.43 0.48 0.50 0.57 0.59 0.71 0.86 0.78 0.59 0.69 0.86 1.11 1.20 1.12 1.06 1.04 1.15 1.23 1.13 0.91 0.72
1.36 1.34 1.37 1.41 1.45 1.52 1.50 1.38 1.45 1.53 1.48 1.28 1.36 1.38 1.26 1.11 0.92 0.54 0.37 0.37 0.47 0.52 0.55 0.51 0.48 0.49 0.63 0.83 1.01 1.00 0.86 0.72 0.67 0.91 1.17 1.25 1.12 1.03 1.17 1.37 1.50 1.28 0.88
1.25 1.25 1.20 1.18 1.14 1.18 1.28 1.29 1.33 1.34 1.36 1.30 1.27 1.30 1.29 1.27 1.26 1.08 0.72 0.66 0.64 0.53 0.55 0.53 0.49 0.52 0.67 0.78 0.89 0.92 0.99 0.87 0.81 0.77 0.82 0.96 1.02 1.02 1.07 1.29 1.66 1.72 1.41
1.02 1.01 1.04 1.05 1.03 1.08 1.16 1.23 1.26 1.19 1.22 1.25 1.26 1.29 1.30 1.26 1.30 1.34 1.08 0.92 0.80 0.65 0.64 0.58 0.53 0.56 0.67 0.73 0.69 0.81 0.77 0.72 0.71 0.74 0.72 0.80 0.81 0.86 0.95 1.17 1.51 1.79 1.84
0.73 0.76 0.76 0.84 0.89 0.98 1.01 1.01 1.08 1.15 1.25 1.27 1.25 1.28 1.31 1.25 1.20 1.24 1.22 1.02 0.90 0.76 0.75 0.70 0.60 0.59 0.58 0.71 0.67 0.56 0.44 0.38 0.39 0.42 0.43 0.50 0.58 0.66 0.79 0.92 1.13 1.39 1.66
0.55 0.60 0.69 0.81 0.90 0.94 0.94 0.97 0.97 1.02 1.15 1.24 1.28 1.38 1.26 1.15 1.14 1.17 1.24 1.21 1.03 0.90 0.92 0.78 0.65 0.59 0.59 0.61 0.53 0.39 0.32 0.24 0.24 0.23 0.20 0.23 0.30 0.38 0.51 0.67 0.83 0.95 1.08
0.53 0.57 0.65 0.76 0.88 0.99 1.02 1.00 1.01 1.09 1.23 1.30 1.40 1.43 1.29 1.18 1.18 1.18 1.28 1.34 1.24 1.02 0.92 0.88 0.72 0.59 0.56 0.50 0.40 0.39 0.39 0.29 0.20 0.16 0.12 0.13 0.17 0.21 0.29 0.42 0.56 0.69 0.78
0.49 0.54 0.62 0.68 0.71 0.77 0.82 0.83 0.91 1.03 1.17 1.23 1.24 1.27 1.27 1.24 1.28 1.23 1.29 1.35 1.36 1.22 0.94 0.92 0.84 0.63 0.63 0.43 0.37 0.37 0.33 0.26 0.19 0.14 0.11 0.12 0.14 0.18 0.22 0.27 0.37 0.49 0.60
0.43 0.48 0.53 0.54 0.54 0.55 0.57 0.62 0.73 0.87 0.94 0.95 0.93 0.96 0.98 1.03 1.08 1.07 1.13 1.18 1.24 1.25 0.97 0.95 1.08 0.95 0.86 0.67 0.51 0.46 0.30 0.23 0.23 0.18 0.13 0.11 0.11 0.15 0.20 0.23 0.26 0.32 0.41
0.38 0.41 0.43 0.44 0.43 0.45 0.52 0.57 0.65 0.73 0.80 0.79 0.78 0.78 0.75 0.82 0.91 0.92 0.96 1.04 1.16 1.28 1.13 0.99 1.08 1.13 1.07 0.88 0.74 0.61 0.42 0.29 0.29 0.26 0.17 0.13 0.12 0.13 0.19 0.23 0.23 0.25 0.30
0.31 0.34 0.38 0.42 0.45 0.52 0.62 0.72 0.78 0.75 0.67 0.61 0.56 0.53 0.54 0.60 0.68 0.75 0.84 0.89 0.96 1.20 1.22 1.08 1.03 1.19 1.17 1.00 0.95 0.76 0.64 0.61 0.41 0.34 0.22 0.16 0.17 0.17 0.20 0.25 0.26 0.26 0.26
0.34 0.40 0.45 0.52 0.59 0.62 0.65 0.69 0.70 0.71 0.66 0.55 0.44 0.37 0.36 0.44 0.56 0.63 0.69 0.76 0.82 0.91 1.02 1.06 1.06 1.16 1.16 1.01 1.05 0.95 0.85 0.76 0.63 0.48 0.40 0.25 0.20 0.23 0.25 0.26 0.28 0.31 0.33
0.29 0.42 0.50 0.56 0.64 0.61 0.57 0.56 0.55 0.49 0.49 0.48 0.41 0.32 0.29 0.32 0.39 0.48 0.53 0.60 0.67 0.73 0.78 0.87 0.96 1.05 1.15 1.04 0.93 0.92 0.88 0.83 0.81 0.79 0.80 0.54 0.32 0.27 0.29 0.30 0.33 0.39 0.46
0.27 0.35 0.38 0.43 0.49 0.44 0.37 0.35 0.36 0.37 0.37 0.38 0.37 0.32 0.27 0.25 0.27 0.32 0.38 0.43 0.46 0.49 0.58 0.69 0.75 0.83 0.97 1.00 0.94 0.93 0.90 0.84 0.87 0.88 0.97 1.03 0.78 0.59 0.48 0.33 0.31 0.37 0.49
0.32 0.36 0.35 0.35 0.37 0.40 0.33 0.27 0.25 0.27 0.32 0.33 0.33 0.30 0.22 0.18 0.19 0.18 0.20 0.25 0.33 0.33 0.35 0.48 0.53 0.50 0.60 0.68 0.77 0.91 0.97 0.94 0.98 1.07 1.08 1.23 1.34 1.16 0.78 0.52 0.40 0.34 0.42
0.44 0.45 0.39 0.38 0.38 0.36 0.29 0.23 0.21 0.22 0.28 0.32 0.32 0.28 0.23 0.18 0.17 0.18 0.19 0.21 0.21 0.21 0.21 0.23 0.27 0.33 0.41 0.50 0.55 0.62 0.82 1.01 1.05 1.13 1.19 1.36 1.53 1.78 1.42 0.93 0.69 0.51 0.49
0.49 0.49 0.44 0.41 0.42 0.39 0.29 0.21 0.22 0.30 0.34 0.35 0.35 0.31 0.27 0.22 0.19 0.16 0.19 0.22 0.19 0.17 0.18 0.21 0.22 0.28 0.35 0.41 0.48 0.50 0.54 0.60 0.77 1.06 1.24 1.42 1.56 1.73 2.08 1.72 1.09 0.69 0.52
0.51 0.47 0.45 0.48 0.49 0.47 0.37 0.25 0.23 0.29 0.37 0.39 0.45 0.41 0.30 0.24 0.22 0.18 0.18 0.19 0.18 0.16 0.16 0.17 0.21 0.23 0.25 0.29 0.35 0.38 0.36 0.37 0.42 0.62 0.81 0.91 1.06 1.26 1.77 2.14 1.83 1.23 0.81